This is the latest recevied weather packets stored in our database for station/object YO3FVR-WX. If no packets are shown the sender has not sent any weather packets the latest 10 day(s).
| Time | Temp. | Humidity | Pressure | Rain* | Wind** | Luminosity | Snow |
|---|---|---|---|---|---|---|---|
| 1777416317 | 13.33° C | 54% | 1012.8 hPa | 0 mm | - | - | - |
| 1777415088 | 13.89° C | 52% | 1012.9 hPa | 0 mm | - | - | - |
| 1777413887 | 14.44° C | 51% | 1012.9 hPa | 0 mm | - | - | - |
| 1777412657 | 15° C | 51% | 1013 hPa | 0 mm | - | - | - |
| 1777411428 | 15.56° C | 50% | 1013.1 hPa | 0 mm | - | - | - |
| 1777410197 | 15.56° C | 49% | 1012.9 hPa | 0 mm | - | - | - |
| 1777408968 | 15.56° C | 49% | 1012.9 hPa | 0 mm | - | - | - |
| 1777407767 | 15.56° C | 48% | 1013 hPa | 0 mm | - | - | - |
| 1777406538 | 15.56° C | 49% | 1012.8 hPa | 0 mm | - | - | - |
| 1777405307 | 15.56° C | 48% | 1012.7 hPa | 0 mm | - | - | - |
| 1777404107 | 15.56° C | 48% | 1012.7 hPa | 0 mm | - | - | - |
| 1777402878 | 15.56° C | 47% | 1012.7 hPa | 0 mm | - | - | - |
| 1777401678 | 16.11° C | 46% | 1012.7 hPa | 0 mm | - | - | - |
| 1777400448 | 16.67° C | 45% | 1012.4 hPa | 0 mm | - | - | - |
| 1777399218 | 17.22° C | 44% | 1012.1 hPa | 0 mm | - | - | - |
| 1777398018 | 17.78° C | 43% | 1011.8 hPa | 0 mm | - | - | - |
| 1777396817 | 18.33° C | 42% | 1011.5 hPa | 0 mm | - | - | - |
| 1777395588 | 19.44° C | 39% | 1011.5 hPa | 0 mm | - | - | - |
| 1777394388 | 21.11° C | 37% | 1011.4 hPa | 0 mm | - | - | - |
| 1777393158 | 22.22° C | 36% | 1011.4 hPa | 0 mm | - | - | - |
| 1777391957 | 22.22° C | 36% | 1011.5 hPa | 0 mm | - | - | - |
| 1777390728 | 21.67° C | 37% | 1011.4 hPa | 0 mm | - | - | - |
| 1777389528 | 21.67° C | 37% | 1011.4 hPa | 0 mm | - | - | - |
| 1777388328 | 21.67° C | 38% | 1011.5 hPa | 0 mm | - | - | - |
| 1777387128 | 21.67° C | 36% | 1011.4 hPa | 0 mm | - | - | - |
* Rain latest hour (hover to see other rain measurements)
** Current wind speed in m/s (hover to see current wind gust speed)